Weather History for Bloemfontein, South Africa

Change the Weather History Date:

Saturday, March 30, 2013

  Actual Average Record
Temperature  
Mean Temperature 65 °F -  
Max Temperature 70 °F 73 °F 86 °F (2011)
Min Temperature 60 °F 44 °F 37 °F (2002)
Growing Degree Days 15 (Base 50)    
Moisture  
Dew Point 57 °F    
Average Humidity 81    
Maximum Humidity 94    
Minimum Humidity 60    
Precipitation  
Precipitation 0.51 in 0.08 in - ()
Sea Level Pressure  
Sea Level Pressure 30.23 in    
Wind  
Wind Speed 4 mph ()    
Max Wind Speed 9 mph    
Max Gust Speed -    
Visibility 7.7 miles    
Events Rain    
Averages and records for this station are not official NWS values.
T = Trace of Precipitation, MM = Missing Value Source: Averaged Metar Reports

Daily Weather History Graph

Daily Weather History Graph

Search for Another Location

Airport:

Trip Planner

Search our weather history database for the weather conditions in past years. The results will help you decide how hot, cold, wet, or windy it might be!

Date:

Astronomy

Mar. 30, 2013 Rise Set
Actual Time 6:23 AM SAST 6:14 PM SAST
Civil Twilight 6:00 AM SAST 6:37 PM SAST
Nautical Twilight 5:32 AM SAST 7:05 PM SAST
Astronomical Twilight 5:05 AM SAST 7:32 PM SAST
Moon 8:30 PM SAST (3/30) 9:25 AM SAST (3/30)
Length of Visible Light 12h 37m
Length of Day
11h 50m
Waning Gibbous, 88% of the Moon is Illuminated
Mar 30
Waning Gibbous
Apr 3
Last Quarter
Apr 10
New
Apr 18
First Quarter
Apr 25
Full

Hourly Weather History & Observations

Time (SAST) Temp. Dew Point Humidity Pressure Visibility Wind Dir Wind Speed Gust Speed Precip Events Conditions
12:00 AM 60.8 °F 57.2 °F 88% 30.27 in - SE 1.2 mph - N/A   Unknown
1:00 AM 62.6 °F 57.2 °F 82% 30.27 in - South 5.8 mph - N/A   Unknown
2:00 AM 61 °F 56 °F 80%  in - SSE 6.9 mph - -  
2:00 AM 60.8 °F 55.4 °F 82% 30.27 in - SSE 6.9 mph - N/A   Unknown
3:00 AM 60.8 °F 55.4 °F 82% 30.27 in - SSW 4.6 mph - N/A   Unknown
4:00 AM 60.8 °F 55.4 °F 82% 30.24 in - SE 2.3 mph - N/A   Unknown
5:00 AM 62 °F 57 °F 78%  in 19 mi Calm Calm - -   Mostly Cloudy
5:00 AM 60.8 °F 55.4 °F 82% 30.27 in - East 1.2 mph - N/A   Unknown
6:00 AM 60.8 °F 55.4 °F 82% 30.18 in 6.2 mi SSE 2.3 mph - N/A   Mostly Cloudy
7:00 AM 60.8 °F 57.2 °F 88% 30.18 in 6.2 mi South 3.5 mph - N/A   Mostly Cloudy
8:00 AM 63 °F 56 °F 72%  in 19 mi Calm Calm - -   Partly Cloudy
8:00 AM 62.6 °F 55.4 °F 77% 30.21 in 6.2 mi Variable 2.3 mph - N/A   Mostly Cloudy
9:00 AM 62.6 °F 57.2 °F 82% 30.21 in 6.2 mi East 4.6 mph - N/A Rain Light Rain Showers
9:42 AM 62.6 °F 59.0 °F 88% 30.24 in 3.1 mi NE 8.1 mph - N/A Rain Rain Showers
10:00 AM 60.8 °F 59.0 °F 94% 30.24 in 2.5 mi NNE 6.9 mph - N/A Rain Rain Showers
11:00 AM 62 °F 59 °F 85%  in 3 mi NE 8.1 mph - - Rain Heavy Rain Showers
11:00 AM 60.8 °F 57.2 °F 88% 30.30 in 3.1 mi NE 6.9 mph - N/A Rain Rain Showers
11:19 AM 60.8 °F 57.2 °F 88% 30.21 in 6.2 mi East 3.5 mph - N/A   Mostly Cloudy
12:00 PM 62.6 °F 59.0 °F 88% 30.21 in 6.2 mi East 3.5 mph - N/A   Mostly Cloudy
1:00 PM 64.4 °F 59.0 °F 83% 30.21 in 6.2 mi East 3.5 mph - N/A   Mostly Cloudy
1:45 PM 68.0 °F 59.0 °F 73% 30.18 in 6.2 mi East 9.2 mph - N/A   Mostly Cloudy
2:00 PM 68 °F 59 °F 65%  in 25 mi ENE 6.9 mph - -   Scattered Clouds
2:00 PM 66.2 °F 57.2 °F 73% 30.24 in 6.2 mi ENE 6.9 mph - N/A   Mostly Cloudy
3:00 PM 69.8 °F 59.0 °F 68% 30.18 in 6.2 mi East 5.8 mph - N/A   Mostly Cloudy
4:00 PM 69.8 °F 57.2 °F 64% 30.15 in 6.2 mi NE 6.9 mph - N/A   Overcast
5:00 PM 69 °F 58 °F 60%  in 19 mi NNW 2.3 mph - - Rain Light Rain
5:00 PM 68.0 °F 59.0 °F 73% 30.18 in 6.2 mi North 2.3 mph - N/A Rain Light Rain
6:00 PM 62.6 °F 57.2 °F 82% 30.18 in 6.2 mi SSW 4.6 mph - N/A Rain Rain
7:00 PM 60.8 °F 57.2 °F 88% 30.21 in 6.2 mi South 3.5 mph - N/A Rain Light Rain
8:00 PM 60 °F 58 °F 90%  in 19 mi South 3.5 mph - - Rain Light Rain
8:00 PM 60.8 °F 57.2 °F 88% 30.24 in 6.2 mi SSE 4.6 mph - N/A Rain Rain
9:00 PM 60.8 °F 57.2 °F 88% 30.24 in 5.0 mi SE 3.5 mph - N/A Rain Light Rain
10:00 PM 60.8 °F 57.2 °F 88% 30.30 in - SE 3.5 mph - N/A   Unknown
11:00 PM 61 °F 58 °F 88%  in - East 5.8 mph - -  
11:00 PM 60.8 °F 57.2 °F 88% 30.30 in - East 4.6 mph - N/A   Unknown